Weather in Esil

Kazakhstan     51°57′28″N   66°24′22″E
temp.,
°C
wind,
m/s
gust,
m/s
humid.,
%
clouds,
%
prec.,
mm/h
press.,
hPa
HPBL,
m
28 february, sun
sun2800:00−11sse81493100 0.6 1019562
03:00−10sse81393100 0.6 1015584
06:00−7sse71394100 0.9 1012476
09:00−6sse61093100 0.2 1010370
12:00−3s61096100 0.9 1006524
15:000s712100100 2.3 1003595
18:00+1sw81499100 4.6 1001651
21:00+1sw71291100 0.2 1003686
1 march, mon
mon100:00−1sw71391100 0.3 1004549
03:00−1sw81394100 0.5 1005694
06:00−4wsw7129599 0.8 1006460
09:00−7w489699 0.3 1009238
12:00−10wnw469499 0.4 1013272
15:00−10w4593100 0.1 1015335
18:00−12wnw3395100 0.1 101761
21:00−15wnw2298100 0.1 101820
2 march, tue
tue200:00−17wsw229999 0.1 101920
03:00−17ssw239899 0.1 101922
06:00−16ssw239797 0.3 101844
09:00−15ssw359699 0.1 1018128
12:00−14ssw469494 0.2 1017301
15:00−14sw5793100 0.1 1017376
18:00−15sw5894100 0.2 1016373
21:00−16ssw6119595 0.2 1017342
3 march, wed
wed300:00−19ssw5119898 0.2 1018244
03:00−21ssw6119897 0.0 1017250
06:00−19ssw7139395 0.0 1017304
09:00−16ssw8149097 0.0 1016361
12:00−12ssw9159399 0.1 1015439
15:00−8ssw91592100 0.2 1013567
18:00−5ssw91589100 0.4 1012767
21:00−3ssw81495100 0.3 1010784
4 march, thu
thu400:00−3ssw81595100 0.7 1009686
03:00−2ssw81496100 0.7 1006770
06:00−1ssw81397100 1.7 1005777
09:00−2ssw91593100 1.0 1003785
12:000ssw81298100 1.9 1002767
15:00−1sw81195100 0.8 1002699
18:00−1wsw699799 1.6 1003563
21:00−3wnw61096100 0.9 1005509